Lid_Strength_Index
-0 -0 0 -0 -0 0 0 0 0 0 1 0 0 0 -1 -1 -1 0 2 -0 3 4 4 4 4 6 5 5 8 6 5 5 6 8 8 8 8 7 8 8 9 9 10 10 10 11 12 4 5 8 6 5 5 5
0 -0 0 0 -0 0 1 1 0 0 0 0 0 0 -1 0 -0 0 3 1 1 3 4 3 3 4 5 5 5 5 6 5 5 6 6 6 7 7 8 10 6 10 8 9 9 9 6 5 6 4 4 5 4 4
-0 -0 -0 0 0 1 1 1 1 0 1 0 0 0 -0 -0 -0 1 3 2 2 3 4 4 5 3 3 4 4 7 5 4 5 4 6 6 7 6 8 8 7 7 5 7 8 6 6 5 4 4 3 4 3 3
0 -0 -0 0 1 1 1 1 1 1 0 0 0 0 -0 -0 0 1 3 2 2 3 6 4 1 3 2 3 3 4 5 4 3 4 6 7 7 5 7 6 7 6 6 8 9 7 6 5 4 4 3 3 3 3
0 0 0 0 1 1 1 1 1 1 0 0 0 0 0 0 0 1 2 2 1 4 7 6 2 2 2 2 3 3 4 4 5 6 6 7 5 6 5 6 7 5 6 10 9 6 6 6 4 3 4 4 3 4
-0 0 0 0 1 1 1 1 1 1 1 1 1 0 0 0 1 3 5 1 0 1 5 8 3 3 3 3 2 2 3 3 4 5 6 5 4 5 7 8 6 4 4 5 6 4 5 4 3 3 4 3 3 3
-0 0 1 1 1 1 1 1 1 1 1 1 1 0 0 0 1 4 5 3 3 1 5 7 6 3 3 2 3 3 3 4 4 5 6 5 5 4 7 10 6 5 4 4 4 4 5 4 5 3 3 3 3 3
-0 -0 -0 0 0 1 1 1 1 1 1 1 0 0 0 0 1 3 2 2 2 3 3 8 9 5 2 5 6 3 5 4 4 5 5 6 5 5 8 6 4 4 4 4 4 3 4 3 3 3 3 3 4 4
0 0 0 0 1 1 1 1 2 1 1 0 0 -0 0 2 3 1 0 1 1 3 7 7 10 8 3 4 4 5 4 7 5 7 6 6 7 8 7 5 5 4 5 4 3 4 4 4 4 4 3 3 4 4
0 0 1 1 1 1 1 1 1 1 0 0 1 2 5 1 -0 0 2 4 4 4 4 7 6 9 4 6 6 6 6 8 9 8 5 7 8 7 4 4 4 4 3 3 5 6 5 5 4 4 4 3 3 3
0 1 1 1 1 1 1 1 1 1 1 1 3 3 1 -1 1 3 6 7 6 7 5 4 6 8 4 9 7 5 8 7 12 9 9 10 10 8 5 5 4 3 3 3 3 3 3 3 4 4 3 3 3 3
1 1 1 1 1 1 1 0 1 1 1 2 2 0 1 3 5 7 7 6 6 9 5 7 6 5 5 4 8 6 8 8 13 6 9 12 9 6 5 5 4 3 3 3 2 3 3 3 3 3 3 3 3 2
0 1 1 1 1 0 1 0 0 1 0 -1 3 5 5 5 11 10 10 9 9 6 6 6 7 5 4 5 8 7 8 9 7 9 12 11 7 6 5 5 4 3 3 3 3 2 2 3 2 2 3 2 2 2
1 0 0 0 0 0 0 0 1 0 1 4 6 11 7 9 9 8 8 8 5 5 6 6 8 7 6 7 6 9 7 6 9 11 11 9 7 5 4 4 4 3 3 3 3 3 3 3 3 2 2 2 2 3
1 1 0 1 1 0 0 1 1 -1 2 5 6 12 9 6 5 5 5 5 5 4 5 6 7 7 7 7 8 7 9 10 9 11 9 7 5 4 4 3 3 3 3 3 3 3 3 3 3 2 2 2 3 3
1 1 0 1 0 1 1 0 -1 -0 2 4 5 8 5 6 7 6 6 6 4 5 4 5 7 8 8 8 10 10 11 11 10 8 6 5 4 4 4 4 4 3 3 3 3 3 3 2 2 3 3 3 3 2
1 1 2 1 1 1 1 0 1 3 5 6 6 4 5 6 6 6 5 5 3 5 8 7 9 10 7 9 11 10 11 9 6 6 5 4 4 4 4 4 4 4 3 3 3 2 2 2 2 3 3 2 3 3
2 1 1 1 1 -0 0 1 3 4 6 5 7 6 5 4 5 5 4 4 4 5 6 8 6 9 10 12 11 8 6 6 5 5 4 4 3 3 3 3 3 3 3 3 2 2 2 2 2 3 2 2 2 2
4 3 3 2 1 2 3 3 3 7 6 5 4 4 4 5 4 4 4 3 3 3 4 5 8 10 9 7 8 7 6 6 6 5 4 3 3 3 3 3 3 3 3 3 3 3 2 2 2 2 3 3 3 3
3 3 4 3 3 4 6 4 1 5 7 6 4 5 5 5 4 4 4 4 4 5 6 8 8 7 7 6 5 5 4 4 4 6 5 4 3 3 3 3 4 3 3 2 2 4 2 2 2 2 2 2 3 3
3 3 3 3 4 6 6 6 6 6 7 7 5 5 6 5 5 5 5 4 5 6 7 5 5 5 3 3 3 3 3 3 4 4 5 5 3 3 4 3 2 3 3 3 3 4 4 3 2 2 3 2 2 2
1 3 3 3 4 5 5 5 7 5 6 5 5 5 7 8 7 6 5 6 7 6 5 5 5 4 4 4 3 3 2 2 2 3 4 4 4 4 4 3 3 3 3 3 2 2 3 2 2 2 2 2 3 1
2 3 3 3 5 6 7 3 6 5 8 7 5 8 8 7 7 4 8 7 6 4 4 3 2 2 3 2 2 2 2 2 3 3 3 3 3 3 3 2 2 3 3 2 1 2 2 3 3 2 1 2 1 2
4 4 5 6 5 8 4 6 5 6 6 7 7 9 7 6 5 6 9 7 5 4 4 3 3 4 3 2 3 3 2 2 2 2 2 2 3 3 2 2 2 1 1 1 2 2 2 1 3 1 1 2 1 2
7 7 6 11 4 6 8 8 7 6 7 7 7 8 6 5 8 8 8 6 5 4 4 3 3 3 5 4 3 2 1 2 3 4 2 2 2 2 3 2 2 2 1 2 2 2 2 1 1 1 1 2 2 2
10 6 9 6 5 7 6 8 8 8 7 7 7 6 5 7 9 9 6 4 4 3 3 3 4 3 3 2 3 3 3 1 1 3 2 1 2 2 3 3 2 2 0 1 1 1 1 2 1 2 2 2 5 2
9 6 4 2 3 4 5 4 4 5 7 8 6 6 6 10 9 6 3 2 3 2 1 1 1 2 2 2 1 1 1 1 1 1 1 1 0 0 1 2 2 1 0 0 1 1 1 1 1 1 1 1 1 1
4 4 6 5 4 4 5 5 6 6 6 4 5 7 8 8 7 4 3 2 1 1 1 1 1 1 1 1 1 1 1 1 0 0 0 0 0 -0 -0 0 -0 5 0 0 0 0 1 1 1 1 1 1 1 1
5 4 4 6 5 5 5 5 5 4 3 4 6 6 6 4 2 2 2 1 1 1 2 2 2 1 1 1 1 1 1 1 2 3 3 3 2 2 -0 0 -0 0 0 0 5 3 1 1 1 1 1 1 1 1
5 3 5 5 6 7 5 4 4 3 2 2 2 3 3 2 1 0 1 1 2 2 2 1 1 1 2 2 2 1 1 1 1 2 3 3 2 1 0 0 0 0 0 0 1 2 6 3 3 2 2 2 2 2
3 3 5 5 6 3 3 2 2 2 2 3 2 3 4 3 2 1 1 1 1 1 2 2 2 1 2 2 2 2 2 1 0 0 0 1 0 1 0 0 -0 0 0 0 1 1 2 2 2 2 1 2 2 3
3 5 5 6 5 3 2 4 4 4 3 4 4 2 3 3 4 3 1 1 1 2 3 1 1 2 1 1 1 0 5 0 1 0 0 1 1 0 0 1 1 0 1 1 1 1 1 2 2 3 2 1 2 1
3 4 4 4 4 5 4 4 4 5 4 4 4 4 4 4 5 3 -0 -0 1 1 1 1 1 1 0 0 0 0 3 -0 1 6 5 6 7 5 2 1 1 2 2 1 1 1 1 1 2 2 2 2 2 2